sat.trackr.live / text

‹ back to catalog

STARLINK-30127

NORAD 56699 · 2023-067M

PAYLOAD ACTIVE UNKNOWN

§ Identity

Operator
Country
US
Launch date
2023-05-19
Launch site
AFETR
Launch vehicle
Mass (kg)
RCS (m²)

Purposes: comms

External: N2YO · Heavens-Above · Gunter

§ Orbital elements

Epoch: 2026-09-20T17:01:31.689984Z

Period
94.27 min
Inclination
43.0056°
Eccentricity
0.0001917
Mean motion
15.27580710 rev/d
Perigee alt
481.7 km
Apogee alt
484.4 km
Semi-major
6,861.2 km
B*
2.4337e-5
RAAN
260.0963°
Arg perigee
288.9919°
Mean anomaly
71.0725°
Rev number
18,540

§ Raw data

STARLINK-301271 56699U 23067M   26263.70939456  .00000407  00000+0  24337-4 0  99982 56699  43.0056 260.0963 0001917 288.9919  71.0725 15.27580710185401

JSON: /api/v1/satellites/56699 · /tle

For live sub-satellite position, see the globe view (requires WebGL).

§ Visibility from observer

Set your observer location to see the next 7 days of passes ≥ 10°. The values pass through the URL so the page stays shareable.

No JS? Fill the form by hand. The geolocation button needs JavaScript.